NOAA 17 DEB

基本信息
目录编号:
48729
目录名称:
NOAA 17 DEB
国际标识:
2002-032BN
轨道中心:
EARTH
物体状态:
在轨
发射日期:
2002-06-24 UTC
轨道信息
数据来源: 国际轨道数据
星历时间: 2026-07-14T04:03:43+0800
半长轴: 7040.394km
偏心率: 0.0009741
轨道倾角: 98.479°
近地点辐角: 159.323°
升交点赤经: 149.077°
平近点角: 200.837°
近地点: 655.398km
远地点: 669.116km
周期: 97.984分钟
每日圈数: 14.696278
详细信息
发射场:
AFWTR
轨道高度:
LEO
数据来源:
AOE Integration Group
参考系:
TEME
时间系统:
UTC
历元类型:
SGP4
2D轨道图
3D轨道图
轨道高度分析图
轨道倾角分析图
轨道综合分析图
查看轨道综合分析图